Change the Weather History Date:

Tuesday, April 15, 2014

  Actual Average Record
Temperature  
Mean Temperature 50 °F -  
Max Temperature 64 °F 58 °F 82 °F (2003)
Min Temperature 35 °F 41 °F 33 °F (1997)
Degree Days  
Heating Degree Days 16    
Moisture  
Dew Point 51 °F    
Average Humidity 79    
Maximum Humidity 88    
Minimum Humidity 70    
Precipitation  
Precipitation 0.55 in - - ()
Sea Level Pressure  
Sea Level Pressure 29.73 in    
Wind  
Wind Speed 16 mph (SSW)    
Max Wind Speed 25 mph    
Max Gust Speed 37 mph    
Visibility 9 miles    
Events      
Averages and records for this station are not official NWS values.
T = Trace of Precipitation, MM = Missing Value Source: NWS Daily Summary

Daily Weather History Graph

Daily Weather History Graph

Search for Another Location

Airport or City:

Trip Planner

Search our weather history database for the weather conditions in past years. The results will help you decide how hot, cold, wet, or windy it might be!

Date:

Astronomy

Apr. 15, 2014 Rise Set
Actual Time 6:18 AM EDT 7:35 PM EDT
Civil Twilight 5:50 AM EDT 8:03 PM EDT
Nautical Twilight 5:16 AM EDT 8:37 PM EDT
Astronomical Twilight 4:41 AM EDT 9:12 PM EDT
Moon 8:13 PM EDT (4/15) 6:24 AM EDT (4/15)
Length of Visible Light 14h 13m
Length of Day
13h 16m
Full, 100% of the Moon is Illuminated
Apr 15
Full
Apr 22
Last Quarter
Apr 29
New
May 6
First Quarter
May 14
Full

Hourly Weather History & Observations

Time (EDT) Temp. Windchill Dew Point Humidity Pressure Visibility Wind Dir Wind Speed Gust Speed Precip Events Conditions
12:15 AM 62.6 °F - 55.4 °F 77% 29.87 in 10.0 mi SSW 15.0 mph 29.9 mph N/A   Clear
12:35 AM 62.6 °F - 55.4 °F 77% 29.87 in 10.0 mi SSW 13.8 mph 26.5 mph N/A   Partly Cloudy
12:55 AM 62.6 °F - 55.4 °F 77% 29.87 in 10.0 mi SSW 15.0 mph 21.9 mph N/A   Partly Cloudy
1:15 AM 62.6 °F - 55.4 °F 77% 29.86 in 10.0 mi South 16.1 mph 25.3 mph N/A   Partly Cloudy
1:35 AM 62.6 °F - 55.4 °F 77% 29.85 in 10.0 mi South 13.8 mph 17.3 mph N/A   Mostly Cloudy
1:55 AM 62.6 °F - 55.4 °F 77% 29.83 in 10.0 mi South 13.8 mph 19.6 mph N/A   Mostly Cloudy
2:15 AM 62.6 °F - 55.4 °F 77% 29.84 in 10.0 mi South 12.7 mph 24.2 mph N/A   Mostly Cloudy
2:35 AM 62.6 °F - 57.2 °F 82% 29.84 in 10.0 mi South 12.7 mph 18.4 mph N/A   Overcast
2:55 AM 62.6 °F - 55.4 °F 77% 29.83 in 10.0 mi South 13.8 mph 20.7 mph N/A   Overcast
3:15 AM 62.6 °F - 55.4 °F 77% 29.83 in 10.0 mi South 13.8 mph 19.6 mph N/A   Overcast
3:35 AM 62.6 °F - 55.4 °F 77% 29.83 in 10.0 mi South 13.8 mph 23.0 mph N/A   Overcast
3:55 AM 62.6 °F - 55.4 °F 77% 29.83 in 10.0 mi South 11.5 mph 20.7 mph N/A   Overcast
4:15 AM 62.6 °F - 55.4 °F 77% 29.82 in 8.0 mi SSW 15.0 mph 25.3 mph 0.01 in   Overcast
4:35 AM 62.6 °F - 55.4 °F 77% 29.81 in 10.0 mi SSW 13.8 mph 20.7 mph 0.06 in   Overcast
4:55 AM 60.8 °F - 55.4 °F 82% 29.80 in 10.0 mi South 9.2 mph 17.3 mph 0.07 in   Overcast
5:15 AM 62.6 °F - 57.2 °F 82% 29.79 in 10.0 mi South 11.5 mph 19.6 mph N/A   Overcast
5:35 AM 62.6 °F - 57.2 °F 82% 29.78 in 6.0 mi South 11.5 mph 19.6 mph N/A   Overcast
5:55 AM 60.8 °F - 55.4 °F 82% 29.78 in 10.0 mi South 13.8 mph 19.6 mph N/A   Overcast
6:15 AM 60.8 °F - 55.4 °F 82% 29.77 in 8.0 mi South 15.0 mph 28.8 mph 0.02 in   Overcast
6:35 AM 60.8 °F - 55.4 °F 82% 29.77 in 10.0 mi South 15.0 mph 27.6 mph 0.02 in   Overcast
6:55 AM 60.8 °F - 55.4 °F 82% 29.76 in 7.0 mi South 12.7 mph 25.3 mph 0.03 in   Overcast
7:15 AM 60.8 °F - 55.4 °F 82% 29.76 in 5.0 mi South 15.0 mph 28.8 mph N/A   Overcast
7:35 AM 60.8 °F - 55.4 °F 82% 29.76 in 10.0 mi South 16.1 mph 25.3 mph N/A   Overcast
7:55 AM 60.8 °F - 55.4 °F 82% 29.76 in 9.0 mi South 18.4 mph 26.5 mph N/A   Overcast
8:15 AM 60.8 °F - 55.4 °F 82% 29.75 in 6.0 mi South 16.1 mph 23.0 mph 0.01 in   Overcast
8:35 AM 60.8 °F - 55.4 °F 82% 29.74 in 6.0 mi South 15.0 mph 26.5 mph 0.01 in   Overcast
8:55 AM 60.8 °F - 55.4 °F 82% 29.73 in 5.0 mi South 17.3 mph 25.3 mph 0.02 in   Overcast
9:15 AM 60.8 °F - 55.4 °F 82% 29.72 in 4.0 mi South 15.0 mph 20.7 mph 0.01 in   Overcast
9:35 AM 60.8 °F - 55.4 °F 82% 29.71 in 4.0 mi South 16.1 mph 26.5 mph 0.06 in   Overcast
9:55 AM 62.6 °F - 55.4 °F 77% 29.70 in 5.0 mi South 19.6 mph 32.2 mph 0.07 in   Overcast
10:15 AM 60.8 °F - 55.4 °F 82% 29.70 in 5.0 mi South 13.8 mph 32.2 mph 0.02 in   Overcast
10:35 AM 62.6 °F - 57.2 °F 82% 29.69 in 4.0 mi South 18.4 mph 29.9 mph 0.03 in   Overcast
10:55 AM 60.8 °F - 55.4 °F 82% 29.68 in 3.0 mi South 19.6 mph 31.1 mph 0.04 in   Overcast
11:15 AM 60.8 °F - 57.2 °F 88% 29.68 in 5.0 mi South 17.3 mph 29.9 mph 0.02 in   Overcast
11:35 AM 62.6 °F - 57.2 °F 82% 29.66 in 10.0 mi South 19.6 mph 28.8 mph 0.02 in   Overcast
11:55 AM 62.6 °F - 57.2 °F 82% 29.66 in 4.0 mi South 24.2 mph 35.7 mph 0.07 in   Overcast
12:15 PM 62.6 °F - 57.2 °F 82% 29.64 in 9.0 mi South 21.9 mph 31.1 mph N/A   Overcast
12:55 PM 62.6 °F - 57.2 °F 82% 29.61 in 10.0 mi South 23.0 mph 32.2 mph 0.01 in   Overcast
1:15 PM 62.6 °F - 57.2 °F 82% 29.59 in 10.0 mi South 21.9 mph 35.7 mph N/A   Overcast
1:55 PM 62.6 °F - 57.2 °F 82% 29.59 in 10.0 mi South 21.9 mph 29.9 mph N/A   Overcast
2:15 PM 62.6 °F - 57.2 °F 82% 29.58 in 10.0 mi South 16.1 mph 35.7 mph N/A   Overcast
2:35 PM 64.4 °F - 57.2 °F 77% 29.57 in 10.0 mi South 15.0 mph 28.8 mph N/A   Overcast
2:55 PM 62.6 °F - 57.2 °F 82% 29.58 in 10.0 mi South 16.1 mph 29.9 mph N/A   Overcast
3:15 PM 62.6 °F - 57.2 °F 82% 29.58 in 10.0 mi South 12.7 mph 28.8 mph N/A   Overcast
3:35 PM 62.6 °F - 55.4 °F 77% 29.56 in 10.0 mi South 18.4 mph 34.5 mph N/A   Overcast
3:55 PM 62.6 °F - 55.4 °F 77% 29.55 in 10.0 mi South 17.3 mph 26.5 mph N/A   Mostly Cloudy
4:15 PM 62.6 °F - 57.2 °F 82% 29.56 in 10.0 mi South 16.1 mph 26.5 mph N/A   Mostly Cloudy
4:35 PM 64.4 °F - 57.2 °F 77% 29.55 in 10.0 mi South 15.0 mph 24.2 mph N/A   Overcast
4:55 PM 64.4 °F - 57.2 °F 77% 29.56 in 10.0 mi SSW 16.1 mph 25.3 mph N/A   Overcast
5:15 PM 64.4 °F - 57.2 °F 77% 29.56 in 10.0 mi SSW 17.3 mph 25.3 mph N/A   Overcast
5:35 PM 64.4 °F - 57.2 °F 77% 29.57 in 10.0 mi SSW 15.0 mph 24.2 mph N/A   Overcast
5:55 PM 57.2 °F - 50.0 °F 77% 29.62 in 9.0 mi NW 23.0 mph 36.8 mph N/A   Overcast
6:15 PM 53.6 °F - 46.4 °F 77% 29.64 in 10.0 mi WNW 16.1 mph 26.5 mph 0.01 in   Overcast
6:35 PM 51.8 °F - 46.4 °F 82% 29.65 in 10.0 mi WNW 13.8 mph 23.0 mph 0.01 in   Overcast
6:55 PM 51.8 °F - 44.6 °F 76% 29.66 in 10.0 mi NW 18.4 mph 26.5 mph 0.01 in   Overcast
7:15 PM 48.2 °F - 41.0 °F 76% 29.69 in 8.0 mi NW 24.2 mph 31.1 mph N/A   Mostly Cloudy
7:35 PM 46.4 °F 39.2 °F 39.2 °F 76% 29.70 in 10.0 mi NW 18.4 mph 28.8 mph 0.01 in   Overcast
7:55 PM 44.6 °F 36.9 °F 39.2 °F 81% 29.72 in 10.0 mi NW 18.4 mph 26.5 mph 0.01 in   Overcast
8:15 PM 44.6 °F 35.9 °F 37.4 °F 76% 29.75 in 10.0 mi NW 23.0 mph 29.9 mph N/A   Overcast
8:35 PM 42.8 °F 34.0 °F 35.6 °F 76% 29.77 in 7.0 mi NW 20.7 mph 36.8 mph 0.01 in   Overcast
8:55 PM 42.8 °F 33.3 °F 33.8 °F 70% 29.78 in 7.0 mi NNW 24.2 mph 33.4 mph 0.04 in   Overcast
9:15 PM 41.0 °F 30.9 °F 33.8 °F 76% 29.77 in 10.0 mi NNW 24.2 mph 32.2 mph 0.03 in   Overcast
9:35 PM 41.0 °F 30.7 °F 33.8 °F 76% 29.80 in 7.0 mi NW 25.3 mph 34.5 mph 0.07 in   Overcast
9:55 PM 39.2 °F 28.7 °F 33.8 °F 81% 29.85 in 10.0 mi NW 23.0 mph 36.8 mph 0.09 in   Overcast
10:15 PM 39.2 °F 29.3 °F 33.8 °F 81% 29.83 in 10.0 mi NNW 20.7 mph 28.8 mph 0.01 in   Overcast
10:35 PM 39.2 °F 30.2 °F 32.0 °F 75% 29.86 in 10.0 mi NNW 17.3 mph 29.9 mph 0.02 in   Overcast
10:55 PM 37.4 °F 26.4 °F 28.4 °F 70% 29.87 in 10.0 mi NNW 23.0 mph 31.1 mph 0.05 in   Overcast
11:15 PM 35.6 °F 24.5 °F 28.4 °F 75% 29.89 in 9.0 mi NNW 20.7 mph 26.5 mph 0.02 in   Overcast
11:35 PM 35.6 °F 25.5 °F 28.4 °F 75% 29.89 in 10.0 mi NNW 17.3 mph 28.8 mph 0.03 in   Overcast
11:55 PM 35.6 °F 25.9 °F 28.4 °F 75% 29.91 in 10.0 mi NNW 16.1 mph 20.7 mph 0.04 in   Overcast